Skip Page Navigation
NASA JPL Caltech
NASA Logo - Jet Propulsion Laboratory + View the NASA Portal
+ Near-Earth Object (NEO) Program
Search JPL
JPL Home Earth Solar System Stars & Galaxies Technology
JPL Solar System Dynamics
BODIES ORBITS EPHEMERIDES TOOLS PHYSICAL DATA DISCOVERY FAQ SITE MAP
JPL Small-Body Database Browser
Search: [ help ]  
227930 Athos (2007 GG6)
Classification: Main-belt Asteroid          SPK-ID: 2227930
Ephemeris | Orbit Diagram | Orbital Elements | Physical Parameters | Discovery Circumstances | Close-Approach Data ]

[ show orbit diagram ]
Orbital Elements at Epoch 2457400.5 (2016-Jan-13.0) TDB
Reference: JPL 7 (heliocentric ecliptic J2000)
 Element Value Uncertainty (1-sigma)   Units 
e .2327983401854584 8.5079e-08  
a 3.141786867010194 9.6469e-08 au
q 2.410384099153749 2.3632e-07 au
i 9.266988967799749 1.9059e-05 deg
node 48.34877523508328 6.4275e-05 deg
peri 251.1298857776305 7.9632e-05 deg
M 134.6391771881146 4.0055e-05 deg
tp 2456639.766651521960
(2013-Dec-13.26665152)
0.00023364 JED
period 2034.058816843913
5.57
9.3684e-05
2.565e-07
d
yr
n .1769860325664443 8.1515e-09 deg/d
Q 3.873189634866638 1.1893e-07 au
  Orbit Determination Parameters
   # obs. used (total)      135  
   data-arc span      4096 days (11.21 yr)  
   first obs. used      2003-10-24  
   last obs. used      2015-01-10  
   planetary ephem.      DE431  
   SB-pert. ephem.      SB431-BIG16  
   condition code      0  
   fit RMS      .67385  
   data source      ORB  
   producer      Otto Matic  
   solution date      2015-Feb-04 20:26:58  

Additional Information
 Earth MOID = 1.41291 au 
 Jupiter MOID = 1.47468 au 
 T_jup = 3.148 
[ show covariance matrix ]

Ephemeris | Orbit Diagram | Orbital Elements | Physical Parameters | Discovery Circumstances | Close-Approach Data ]

Physical Parameter Table
Parameter Symbol Value Units Sigma Reference Notes
absolute magnitude H 15.6 mag n/a MPO314657  

227930 Athos           Discovered 2007 Apr. 14 by B. Christophe at Saint-Sulpice.
Olivier d´Athos de la Fère (1595-1661) is a fictional character, a Musketeer of the Guard in the novels The Three Musketeers, Twenty Years After and The Vicomte de Bragelonne by Alexandre Dumas, père.
NOTE: some special characters may not display properly (any characters within {} are an attempt to place the proper accent above a character)
Reference: 20100330/MPCPages.arcLast Updated: 2010-04-05

[ show close-approach data ]
Alternate Designations
 2007 GG6 = 2003 UX242 
Ephemeris | Orbit Diagram | Orbital Elements | Physical Parameters | Discovery Circumstances | Close-Approach Data ]
ABOUT SSD CREDITS/AWARDS PRIVACY/COPYRIGHT GLOSSARY LINKS
FirstGov 2016-Feb-09 13:50 UT
(server date/time)  
NASA Home Page
Site Manager:   Ryan S. Park
Webmaster  Alan B. Chamberlin